Weather History for KCGS - February, 2013

Change the Weather History Date:

Tuesday, February 12, 2013

  Actual Average (KDCA) Record (KDCA)
Temperature  
Mean Temperature 50 °F 38 °F  
Max Temperature 58 °F 46 °F 74 °F (1999)
Min Temperature 41 °F 30 °F 4 °F (1899)
Degree Days  
Heating Degree Days 15 27  
Month to date heating degree days 330  
Since 1 July heating degree days 2710  
Cooling Degree Days 0 0  
Month to date cooling degree days 0  
Year to date cooling degree days 0  
Moisture  
Dew Point 31 °F    
Average Humidity 49    
Maximum Humidity 100    
Minimum Humidity 31    
Precipitation  
Precipitation 0.00 in 0.09 in 1.37 in (1985)
Month to date precipitation 1.13  
Year to date precipitation 3.94  
Snow  
Snow 0.00 in 0.20 in 7.00 in (1899)
Month to date snowfall 2.7  
Since 1 July snowfall 11.1  
Snow Depth -    
Sea Level Pressure  
Sea Level Pressure 29.93 in    
Wind  
Wind Speed 6 mph (WNW)    
Max Wind Speed 16 mph    
Max Gust Speed 22 mph    
Visibility 10 miles    
Events      
T = Trace of Precipitation, MM = Missing Value Source: NWS Daily Summary

Daily Weather History Graph

Daily Weather History Graph

Search for Another Location

Airport or City:

Trip Planner

Search our weather history database for the weather conditions in past years. The results will help you decide how hot, cold, wet, or windy it might be!

Date:

Astronomy

Feb. 12, 2013 Rise Set
Actual Time 7:02 AM EST 5:41 PM EST
Civil Twilight 6:34 AM EST 6:09 PM EST
Nautical Twilight 6:03 AM EST 6:40 PM EST
Astronomical Twilight 5:32 AM EST 7:11 PM EST
Moon 8:00 AM EST (2/12) 8:38 PM EST (2/12)
Length of Visible Light 11h 34m
Length of Day
10h 39m
Waxing Crescent, 7% of the Moon is Illuminated
Feb 12
Waxing Crescent
Feb 17
First Quarter
Feb 25
Full
Mar 4
Last Quarter
Mar 11
New

Hourly Weather History & Observations

Time (EST) Temp. Windchill Dew Point Humidity Pressure Visibility Wind Dir Wind Speed Gust Speed Precip Events Conditions
12:00 AM 42.1 °F 39.2 °F 42.1 °F 100% 29.81 in 7.0 mi North 4.6 mph - N/A   Clear
12:20 AM 50.2 °F - 36.3 °F 59% 29.83 in 10.0 mi NNW 4.6 mph - N/A   Clear
12:40 AM 44.8 °F - 37.2 °F 75% 29.83 in 10.0 mi Calm Calm - N/A   Clear
1:00 AM 45.7 °F - 36.5 °F 70% 29.83 in 10.0 mi Calm Calm - N/A   Clear
1:20 AM 49.6 °F - 34.9 °F 57% 29.84 in 10.0 mi WSW 3.5 mph - N/A   Clear
1:40 AM 48.9 °F - 33.8 °F 56% 29.85 in 10.0 mi Calm Calm - N/A   Clear
2:00 AM 49.5 °F - 32.9 °F 53% 29.85 in 10.0 mi West 3.5 mph - N/A   Clear
2:20 AM 49.3 °F - 33.1 °F 54% 29.86 in 10.0 mi Calm Calm - N/A   Clear
2:40 AM 49.1 °F - 32.4 °F 53% 29.86 in 10.0 mi WSW 4.6 mph - N/A   Clear
3:00 AM 50.0 °F - 30.6 °F 47% 29.86 in 10.0 mi West 4.6 mph 17.3 mph N/A   Clear
3:20 AM 50.2 °F - 29.7 °F 45% 29.85 in 10.0 mi West 8.1 mph 16.1 mph N/A   Clear
3:40 AM 49.8 °F - 29.8 °F 46% 29.85 in 10.0 mi West 6.9 mph - N/A   Clear
4:00 AM 50.0 °F - 30.0 °F 46% 29.86 in 10.0 mi West 8.1 mph - N/A   Clear
4:15 AM 49.8 °F - 30.2 °F 47% 29.87 in 10.0 mi WNW 13.8 mph 20.7 mph N/A   Clear
4:40 AM 49.1 °F - 31.3 °F 50% 29.89 in 10.0 mi NW 11.5 mph 19.6 mph N/A   Clear
5:00 AM 48.9 °F - 31.5 °F 51% 29.90 in 10.0 mi WNW 10.4 mph 20.7 mph N/A   Clear
5:20 AM 48.4 °F - 30.9 °F 51% 29.91 in 10.0 mi NW 8.1 mph 18.4 mph N/A   Clear
5:40 AM 47.7 °F - 30.7 °F 52% 29.91 in 10.0 mi WNW 4.6 mph - N/A   Scattered Clouds
6:00 AM 47.5 °F - 30.0 °F 51% 29.91 in 10.0 mi West 4.6 mph - N/A   Scattered Clouds
6:20 AM 46.6 °F - 30.6 °F 54% 29.92 in 10.0 mi NW 6.9 mph - N/A   Clear
6:40 AM 47.3 °F - 29.7 °F 50% 29.93 in 10.0 mi WNW 9.2 mph - N/A   Clear
7:00 AM 46.9 °F - 29.7 °F 51% 29.93 in 10.0 mi WNW 6.9 mph - N/A   Clear
7:20 AM 47.3 °F - 29.3 °F 50% 29.94 in 10.0 mi WNW 6.9 mph - N/A   Clear
8:00 AM 48.0 °F - 28.6 °F 47% 29.95 in 10.0 mi WNW 9.2 mph - N/A   Clear
8:20 AM 47.7 °F - 28.4 °F 47% 29.96 in 10.0 mi WNW 9.2 mph - N/A   Clear
8:40 AM 47.3 °F - 28.4 °F 48% 29.98 in 10.0 mi Calm Calm - N/A   Clear
9:00 AM 49.6 °F - 28.8 °F 45% 29.97 in 10.0 mi WNW 8.1 mph - N/A   Clear
9:20 AM 51.1 °F - 29.1 °F 43% 29.97 in 10.0 mi WNW 6.9 mph - N/A   Clear
9:40 AM 51.3 °F - 29.1 °F 43% 29.97 in 10.0 mi NW 15.0 mph 21.9 mph N/A   Clear
10:05 AM 51.8 °F - 28.8 °F 41% 29.99 in 10.0 mi WNW 15.0 mph 21.9 mph N/A   Clear
10:25 AM 52.9 °F - 28.9 °F 40% 29.99 in 10.0 mi NW 16.1 mph 19.6 mph N/A   Clear
11:05 AM 52.9 °F - 28.6 °F 39% 30.00 in 10.0 mi NW 10.4 mph 18.4 mph N/A   Clear
11:25 AM 54.0 °F - 28.6 °F 38% 30.00 in 10.0 mi WNW 11.5 mph 17.3 mph N/A   Clear
11:45 AM 54.1 °F - 28.9 °F 38% 29.99 in 10.0 mi WNW 10.4 mph 18.4 mph N/A   Clear
12:05 PM 54.7 °F - 28.4 °F 36% 29.99 in 10.0 mi NW 13.8 mph 19.6 mph N/A   Clear
12:25 PM 54.9 °F - 28.2 °F 36% 29.99 in 10.0 mi NW 11.5 mph 21.9 mph N/A   Clear
12:45 PM 55.6 °F - 28.8 °F 36% 29.98 in 10.0 mi West 5.8 mph - N/A   Clear
1:05 PM 56.3 °F - 28.6 °F 35% 29.97 in 10.0 mi NW 10.4 mph 19.6 mph N/A   Clear
1:25 PM 56.7 °F - 28.9 °F 35% 29.96 in 10.0 mi WNW 9.2 mph 16.1 mph N/A   Clear
1:45 PM 57.2 °F - 29.7 °F 35% 29.94 in 10.0 mi West 8.1 mph - N/A   Clear
2:05 PM 57.7 °F - 29.1 °F 34% 29.93 in 10.0 mi NW 6.9 mph - N/A   Clear
2:25 PM 57.9 °F - 28.8 °F 33% 29.92 in 10.0 mi NNW 9.2 mph - N/A   Clear
2:45 PM 57.9 °F - 28.9 °F 33% 29.88 in 10.0 mi NW 10.4 mph 16.1 mph N/A   Clear
3:00 PM 57.7 °F - 28.2 °F 32% 29.86 in 10.0 mi NW 8.1 mph - N/A   Clear
3:25 PM 58.5 °F - 28.8 °F 32% 29.91 in 10.0 mi West 6.9 mph - N/A   Clear
3:45 PM 58.5 °F - 28.2 °F 32% 29.94 in 10.0 mi WSW 5.8 mph - N/A   Clear
4:05 PM 58.8 °F - 28.2 °F 31% 29.94 in 10.0 mi West 5.8 mph - N/A   Clear
4:25 PM 58.6 °F - 28.0 °F 31% 29.94 in 10.0 mi West 8.1 mph - N/A   Clear
4:45 PM 58.1 °F - 27.7 °F 31% 29.94 in 10.0 mi WSW 4.6 mph - N/A   Clear
5:05 PM 57.4 °F - 27.7 °F 32% 29.92 in 10.0 mi West 6.9 mph - N/A   Clear
5:25 PM 56.3 °F - 28.0 °F 34% 29.94 in 10.0 mi Calm Calm - N/A   Clear
6:05 PM 51.6 °F - 29.8 °F 43% 29.96 in 10.0 mi Calm Calm - N/A   Clear
6:25 PM 46.9 °F - 33.1 °F 59% 29.95 in 10.0 mi Calm Calm - N/A   Clear
6:45 PM 46.8 °F - 32.9 °F 59% 29.96 in 10.0 mi Calm Calm - N/A   Clear
7:05 PM 44.6 °F - 33.6 °F 65% 29.97 in 10.0 mi Calm Calm - N/A   Clear
7:25 PM 43.9 °F - 34.9 °F 71% 29.96 in 10.0 mi Calm Calm - N/A   Clear
7:45 PM 44.8 °F - 33.3 °F 64% 29.95 in 10.0 mi Calm Calm - N/A   Clear
8:05 PM 42.8 °F 41.1 °F 33.3 °F 69% 29.94 in 10.0 mi North 3.5 mph - N/A   Clear
8:25 PM 43.2 °F 41.5 °F 34.0 °F 70% 29.94 in 10.0 mi North 3.5 mph - N/A   Clear
8:45 PM 44.8 °F 43.3 °F 31.8 °F 60% 29.94 in 10.0 mi North 3.5 mph - N/A   Clear
9:05 PM 44.1 °F 42.5 °F 31.6 °F 62% 29.94 in 10.0 mi NNE 3.5 mph - N/A   Clear
9:25 PM 44.6 °F - 31.6 °F 60% 29.95 in 10.0 mi Calm Calm - N/A   Clear
10:05 PM 44.1 °F 42.5 °F 31.5 °F 61% 29.97 in 10.0 mi East 3.5 mph - N/A   Clear
10:25 PM 43.2 °F - 31.3 °F 63% 29.97 in 10.0 mi Calm Calm - N/A   Clear
10:45 PM 42.3 °F - 31.1 °F 65% 29.96 in 10.0 mi Calm Calm - N/A   Clear
11:00 PM 41.9 °F - 31.1 °F 66% 29.96 in 10.0 mi Calm Calm - N/A   Clear